Flag for Russia Weather past 2 weeks in Gelendzhik, Russia

Now
97 °F

Sunny.


Feels Like: 97 °F
Forecast: 66 / 90 °F
Wind: 13 mph from Northeast

Location: Anapa / Vitiazevo

Current Time: Sep 4, 2015 at 2:33:53 PM

Latest Report: Sep 4, 2015 at 2:00 PM


Visibility: 10 mi

Pressure: 29.83 "Hg

Humidity: 30%

Dew point: 61 °F

Location of GelendzhikLocation

Historic Weather in Gelendzhik — Graph

°F

Gelendzhik temperature yesterday

Maximum temperature yesterday: 95 °F (at 1:00 PM)
Minimum temperature yesterday: 59 °F (at 3:00 AM)
Average temperature yesterday: 77 °F

Past Weeks' High & Low Weather Summary

 TemperatureHumidityPressure
High97 °F (Sep 4, 11:30 AM)100% (Aug 31, 4:00 AM)30.12 "Hg (Aug 31, 4:00 AM)
Low55 °F (Aug 27, 3:00 AM)20% (Aug 26, 2:30 PM)29.74 "Hg (Aug 24, 1:00 AM)
Average73 °F55%29.98 "Hg
* Reported Aug 20 1:00 PM — Sep 4 1:30 PM, Gelendzhik, Weather by CustomWeather, © 2015

Note: Actual official high and low records may vary slightly from our data, if they occured in-between our weather recording intervals... More about our weather records

Advertising

Gelendzhik weather history for previous 24 hours

 ConditionsComfort  
Time TempWeatherWind HumidityBarometerVisibility
1:30 PM
Fri, Sep 4
95 °FSunny.17 mph32%29.83 "Hg10 mi
1:00 PM95 °FPassing clouds.13 mph30%29.83 "HgN/A
12:30 PM95 °FSunny.6 mph28%29.83 "Hg10 mi
12:00 PM97 °FPassing clouds.3 mph23%29.83 "HgN/A
11:30 AM97 °FPassing clouds.8 mph22%29.86 "HgN/A
11:00 AM95 °FPassing clouds.8 mph23%29.86 "HgN/A
10:30 AM95 °FPassing clouds.3 mph23%29.86 "HgN/A
10:00 AM93 °FPassing clouds.6 mph26%29.86 "HgN/A
9:30 AM90 °FPassing clouds.6 mph31%29.86 "HgN/A
9:00 AM88 °FPassing clouds.3 mph38%29.86 "HgN/A
8:30 AM84 °FSunny.1 mph43%29.86 "Hg10 mi
8:00 AM79 °FSunny.1 mph51%29.86 "Hg10 mi
7:30 AM79 °FSunny.1 mph51%29.86 "Hg10 mi
7:00 AM73 °FSunny.6 mph53%29.86 "Hg10 mi
6:30 AM64 °FClear.3 mph64%29.86 "Hg10 mi
6:00 AM63 °FClear.6 mph68%29.86 "Hg10 mi
5:30 AM61 °FPassing clouds.3 mph72%29.86 "HgN/A
5:00 AM63 °FClear.3 mph68%29.86 "Hg10 mi
4:00 AM64 °FClear.3 mph64%29.86 "Hg10 mi
3:00 AM66 °FClear.3 mph60%29.83 "Hg10 mi
2:00 AM64 °FClear.3 mph64%29.86 "Hg10 mi
1:00 AM66 °FClear.6 mph68%29.86 "Hg10 mi
12:00 AM66 °FClear.6 mph64%29.86 "Hg10 mi
11:30 PM
Thu, Sep 3
66 °FClear.1 mph60%29.86 "Hg10 mi
11:00 PM66 °FClear.3 mph64%29.86 "Hg10 mi
10:30 PM68 °FClear.6 mph60%29.86 "Hg10 mi
10:00 PM68 °FClear.8 mph64%29.86 "Hg10 mi
9:30 PM72 °FClear.6 mph61%29.86 "Hg10 mi
9:00 PM73 °FClear.6 mph53%29.86 "Hg10 mi
8:30 PM73 °FClear.3 mph53%29.86 "Hg10 mi
8:00 PM73 °FSunny.3 mph57%29.86 "Hg10 mi
7:30 PM75 °FSunny.1 mph69%29.86 "Hg10 mi
7:00 PM79 °FSunny.1 mph74%29.86 "Hg10 mi
6:30 PM81 °FSunny.6 mph70%29.86 "Hg10 mi
6:00 PM84 °FSunny.1 mph62%29.86 "Hg10 mi
5:30 PM86 °FPassing clouds.6 mph59%29.86 "HgN/A
5:00 PM86 °FPassing clouds.8 mph52%29.86 "HgN/A
4:30 PM88 °FPassing clouds.8 mph46%29.86 "HgN/A
4:00 PM86 °FSunny.10 mph46%29.86 "Hg10 mi
3:30 PM88 °FSunny.10 mph46%29.86 "Hg10 mi
3:00 PM88 °FSunny.10 mph46%29.86 "Hg10 mi
2:30 PM88 °FSunny.13 mph49%29.86 "Hg10 mi
2:00 PM88 °FSunny.10 mph49%29.86 "Hg10 mi
Weather by CustomWeather, © 2015

See weather overviewHow to use our weather pages